Estació municipal de El Brull (Osona, P.N. del Montseny)

Consulta les dades en temps real de l'estació municipal de El Brull





Hora UTC 03:20
Temperatura 8.9 ºC
Humitat 85.7 %
Pressió 1014.8 hPa
Pluja 0.0 mm
Velocitat vent 4.3 km/h
Direcció vent N
Radiació solar 0.0 W/m²

Webcam

Dades diàries 2026-05-09



Hora UTC (hivern +1h; estiu +2h)
Temperatura (ºC) Humitat (%) Pressió (hPa) Velocitat vent (km/h) Precipitació (mm) Radiació solar (W/m²)
Hora UTC Aire Humitat Pressió Vel. Dir. Vel. Max Dir. Intent. màx 5 min. Rad. Sol.
00:10 9.1 86.3 1016.0 7.8 SE 14.9 SE 0.0 0.0
00:20 9.0 86.1 1016.0 7.5 SE 12.0 SSE 0.0 0.0
00:30 8.9 86.8 1015.9 6.4 SE 9.8 SE 0.0 0.0
00:40 9.1 86.8 1015.9 6.1 SSE 11.1 SE 0.0 0.0
00:50 9.1 86.4 1015.9 2.9 S 5.8 SSW 0.0 0.0
01:00 9.3 86.5 1015.9 2.7 SE 4.5 SSE 0.0 0.0
01:10 9.5 86.1 1015.9 3.0 SE 7.9 SE 0.0 0.0
01:20 9.8 84.6 1015.7 5.6 SE 9.5 SE 0.0 0.0
01:30 10.0 84.3 1015.6 4.5 SE 10.6 SE 0.0 0.0
01:40 10.2 83.5 1015.6 4.5 SE 8.7 SE 0.0 0.0
01:50 10.3 83.0 1015.5 3.6 SE 10.0 SE 0.0 0.0
02:00 10.4 82.9 1015.5 0.7 S 3.6 ESE 0.0 0.0
02:10 10.5 82.3 1015.3 0.4 SE 1.5 S 0.0 0.0
02:20 10.4 83.0 1015.2 0.8 ESE 5.4 ESE 0.0 0.0
02:30 10.2 83.3 1015.0 2.3 NE 4.7 NE 0.0 0.0
02:40 9.9 84.1 1014.9 2.2 NE 5.4 NE 0.0 0.0
02:50 10.0 83.1 1014.9 0.8 ESE 2.8 E 0.0 0.0
03:00 10.0 82.5 1014.9 1.1 NE 3.5 N 0.0 0.0
03:10 9.7 83.0 1014.8 3.4 NNW 5.8 NNW 0.0 0.0
03:20 8.9 85.7 1014.8 4.3 N 6.4 NNW 0.0 0.0
Màxima 10.5 86.8 1016.0 7.8 SE 14.9 SE 0.0 0.0
Mínima 8.9 82.3 1014.8
Total 0.0